EZY84YT EGNT-LEPA

Flight info

Callsign EZY84YT
Flight time 2h 29m
Altitude 37000
Route GIRLI P18 GASKO P16 RIBEL UP16 CROFT UL612 HON DCT SITET UN859 SOPIL DCT BALAN DCT EVPOK DCT NARAK DCT GAI DCT LOMRA DCT ROCAN DCT IBRAP DCT LUKEV N13 LORES
Aircraft A319/M-SDE2E3FGIJ1RWXYZ/LB1

Departure

Time 2026-05-06 17:36
Airport Newcastle International Airport (EGNT)

Arrival

Time 2026-05-06 20:05
Airport Palma de Mallorca Airport (LEPA)
Time Latitude Longitude Altitude Speed Heading
2026-05-06 17:13 55.03663 -1.70711 273 ft 0 kts
2026-05-06 17:29 55.03653 -1.70713 273 ft 3 kts
2026-05-06 17:29 55.03634 -1.70715 274 ft 2 kts
2026-05-06 17:29 55.03617 -1.70720 281 ft 3 kts 32°
2026-05-06 17:30 55.03603 -1.70743 282 ft 3 kts 65°
2026-05-06 17:30 55.03597 -1.70774 275 ft 2 kts 90°
2026-05-06 17:30 55.03597 -1.70790 275 ft 1 kts 94°
2026-05-06 17:30 55.03597 -1.70791 275 ft 3 kts 94°
2026-05-06 17:33 55.03597 -1.70781 275 ft 2 kts 94°
2026-05-06 17:33 55.03595 -1.70737 276 ft 5 kts 94°
2026-05-06 17:33 55.03583 -1.70670 277 ft 7 kts 141°
2026-05-06 17:33 55.03531 -1.70646 274 ft 7 kts 182°
2026-05-06 17:34 55.03472 -1.70650 274 ft 10 kts 181°
2026-05-06 17:34 55.03396 -1.70645 274 ft 11 kts 163°
2026-05-06 17:34 55.03377 -1.70546 277 ft 6 kts 67°
2026-05-06 17:34 55.03378 -1.70541 276 ft 0 kts 65°
2026-05-06 17:35 55.03378 -1.70540 276 ft 2 kts 65°
2026-05-06 17:35 55.03463 -1.70216 274 ft 67 kts 65°
2026-05-06 17:36 55.04208 -1.67434 486 ft 160 kts 67°
2026-05-06 17:36 55.04671 -1.65676 1204 ft 160 kts 67°
2026-05-06 17:36 55.05142 -1.63878 1810 ft 170 kts 66°
2026-05-06 17:36 55.05670 -1.61873 2197 ft 193 kts 66°
2026-05-06 17:37 55.06257 -1.59652 2714 ft 207 kts 66°
2026-05-06 17:37 55.06603 -1.57203 3384 ft 213 kts 93°
2026-05-06 17:37 55.06082 -1.54783 4060 ft 220 kts 129°
2026-05-06 17:37 55.04773 -1.53274 4481 ft 239 kts 168°
2026-05-06 17:38 55.03039 -1.53091 4987 ft 259 kts 181°
2026-05-06 17:38 55.01208 -1.53121 5827 ft 267 kts 182°
2026-05-06 17:38 54.99334 -1.53173 6721 ft 272 kts 184°
2026-05-06 17:38 54.97464 -1.53716 7576 ft 275 kts 199°
2026-05-06 17:39 54.95718 -1.55070 8461 ft 276 kts 212°
2026-05-06 17:39 54.94068 -1.56812 9375 ft 279 kts 212°
2026-05-06 17:39 54.92389 -1.58556 10237 ft 283 kts 212°
2026-05-06 17:39 54.90626 -1.60373 10561 ft 306 kts 212°
2026-05-06 17:40 54.88739 -1.62309 11035 ft 321 kts 211°
2026-05-06 17:40 54.86798 -1.64294 11754 ft 326 kts 212°
2026-05-06 17:40 54.84829 -1.66310 12539 ft 330 kts 212°
2026-05-06 17:40 54.82841 -1.68350 13309 ft 334 kts 212°
2026-05-06 17:41 54.80829 -1.70411 14047 ft 338 kts 212°
2026-05-06 17:41 54.78791 -1.72496 14722 ft 342 kts 212°
2026-05-06 17:41 54.76734 -1.74594 15402 ft 344 kts 212°
2026-05-06 17:41 54.74660 -1.76708 16082 ft 347 kts 213°
2026-05-06 17:42 54.72563 -1.78823 16780 ft 351 kts 211°
2026-05-06 17:42 54.70297 -1.80458 17446 ft 357 kts 199°
2026-05-06 17:42 54.67848 -1.81380 18114 ft 362 kts 193°
2026-05-06 17:42 54.65361 -1.82162 18717 ft 365 kts 193°
2026-05-06 17:43 54.62852 -1.82955 19279 ft 368 kts 193°
2026-05-06 17:43 54.60318 -1.83754 19842 ft 372 kts 193°
2026-05-06 17:43 54.57764 -1.84557 20403 ft 375 kts 193°
2026-05-06 17:43 54.55185 -1.85365 20960 ft 378 kts 193°
2026-05-06 17:44 54.52584 -1.86184 21507 ft 382 kts 193°
2026-05-06 17:44 54.49955 -1.87013 22066 ft 385 kts 193°
2026-05-06 17:44 54.47368 -1.88180 22579 ft 385 kts 205°
2026-05-06 17:44 54.44920 -1.90068 23128 ft 388 kts 207°
2026-05-06 17:45 54.42491 -1.91989 23645 ft 391 kts 207°
2026-05-06 17:45 54.39981 -1.93982 24077 ft 394 kts 207°
2026-05-06 17:45 54.37518 -1.95939 24517 ft 397 kts 207°
2026-05-06 17:45 54.35000 -1.97937 24917 ft 400 kts 207°
2026-05-06 17:46 54.32461 -1.99944 25321 ft 404 kts 207°
2026-05-06 17:46 54.29897 -2.01964 25722 ft 407 kts 207°
2026-05-06 17:46 54.27314 -2.03993 26119 ft 410 kts 207°
2026-05-06 17:46 54.24713 -2.06030 26503 ft 413 kts 207°
2026-05-06 17:47 54.22089 -2.08083 26889 ft 416 kts 207°
2026-05-06 17:47 54.19448 -2.10149 27271 ft 419 kts 207°
2026-05-06 17:47 54.16788 -2.12225 27646 ft 422 kts 207°
2026-05-06 17:47 54.14106 -2.14320 28025 ft 425 kts 207°
2026-05-06 17:48 54.11410 -2.16421 28402 ft 428 kts 207°
2026-05-06 17:48 54.08689 -2.18541 28773 ft 431 kts 207°
2026-05-06 17:48 54.05947 -2.20673 29137 ft 435 kts 207°
2026-05-06 17:48 54.03190 -2.22813 29481 ft 438 kts 207°
2026-05-06 17:49 54.00406 -2.24969 29827 ft 441 kts 207°
2026-05-06 17:49 53.97609 -2.27136 30160 ft 444 kts 207°
2026-05-06 17:49 53.94792 -2.29318 30451 ft 446 kts 207°
2026-05-06 17:49 53.91957 -2.31508 30739 ft 449 kts 207°
2026-05-06 17:50 53.89109 -2.33699 31030 ft 451 kts 207°
2026-05-06 17:50 53.86245 -2.35890 31317 ft 453 kts 206°
2026-05-06 17:50 53.83371 -2.38086 31655 ft 454 kts 206°
2026-05-06 17:50 53.80487 -2.40295 32077 ft 453 kts 206°
2026-05-06 17:51 53.77622 -2.42491 32484 ft 452 kts 206°
2026-05-06 17:51 53.74759 -2.44680 32879 ft 451 kts 206°
2026-05-06 17:51 53.71901 -2.46859 33287 ft 451 kts 206°
2026-05-06 17:51 53.69038 -2.49005 33672 ft 451 kts 203°
2026-05-06 17:52 53.66074 -2.50528 34057 ft 453 kts 193°
2026-05-06 17:52 53.62965 -2.51159 34376 ft 454 kts 182°
2026-05-06 17:52 53.59794 -2.50835 34703 ft 455 kts 172°
2026-05-06 17:52 53.56714 -2.49569 35015 ft 456 kts 161°
2026-05-06 17:53 53.53781 -2.47555 35314 ft 456 kts 158°
2026-05-06 17:53 53.50863 -2.45471 35605 ft 455 kts 158°
2026-05-06 17:53 53.47946 -2.43410 35889 ft 454 kts 158°
2026-05-06 17:53 53.45032 -2.41360 36163 ft 454 kts 158°
2026-05-06 17:54 53.42121 -2.39318 36422 ft 453 kts 159°
2026-05-06 17:54 53.39213 -2.37285 36676 ft 453 kts 159°
2026-05-06 17:54 53.36305 -2.35253 36923 ft 453 kts 159°
2026-05-06 17:54 53.33397 -2.33217 37019 ft 451 kts 159°
2026-05-06 17:55 53.27632 -2.29174 37028 ft 449 kts 159°
2026-05-06 17:55 53.21879 -2.25147 37028 ft 448 kts 159°
2026-05-06 17:56 53.16127 -2.21142 37028 ft 448 kts 159°
2026-05-06 17:56 53.10379 -2.17168 37027 ft 447 kts 159°
2026-05-06 17:57 53.04632 -2.13202 37027 ft 447 kts 159°
2026-05-06 17:57 52.98891 -2.09234 37028 ft 447 kts 159°
2026-05-06 17:58 52.93143 -2.05265 37027 ft 447 kts 159°
2026-05-06 17:58 52.87404 -2.01321 37030 ft 447 kts 159°
2026-05-06 17:59 52.81661 -1.97413 37028 ft 446 kts 159°
2026-05-06 17:59 52.75918 -1.93512 37030 ft 446 kts 159°
2026-05-06 18:00 52.70185 -1.89602 37026 ft 446 kts 159°
2026-05-06 18:00 52.64444 -1.85716 37029 ft 446 kts 159°
2026-05-06 18:01 52.58705 -1.81841 37029 ft 446 kts 159°
2026-05-06 18:01 52.52972 -1.77969 37029 ft 445 kts 159°
2026-05-06 18:02 52.47235 -1.74112 37027 ft 445 kts 160°
2026-05-06 18:02 52.41503 -1.70274 37039 ft 445 kts 160°
2026-05-06 18:03 52.35769 -1.66445 37030 ft 445 kts 160°
2026-05-06 18:03 52.30114 -1.62314 37029 ft 445 kts 156°
2026-05-06 18:04 52.24589 -1.57874 37032 ft 445 kts 155°
2026-05-06 18:04 52.19026 -1.53435 37033 ft 445 kts 156°
2026-05-06 18:05 52.13438 -1.49116 37037 ft 445 kts 156°
2026-05-06 18:05 52.07836 -1.44837 37028 ft 444 kts 156°
2026-05-06 18:06 52.02245 -1.40558 37031 ft 444 kts 156°
2026-05-06 18:06 51.96660 -1.36289 37002 ft 444 kts 156°
2026-05-06 18:07 51.91068 -1.32033 37006 ft 444 kts 156°
2026-05-06 18:07 51.85481 -1.27786 37010 ft 443 kts 156°
2026-05-06 18:08 51.79898 -1.23550 37007 ft 443 kts 156°
2026-05-06 18:08 51.74313 -1.19321 37011 ft 443 kts 156°
2026-05-06 18:09 51.68731 -1.15112 37009 ft 443 kts 157°
2026-05-06 18:09 51.63146 -1.10914 37007 ft 443 kts 157°
2026-05-06 18:10 51.57619 -1.06757 37004 ft 443 kts 157°
2026-05-06 18:10 51.52040 -1.02583 37004 ft 443 kts 157°
2026-05-06 18:11 51.47396 -0.99125 37005 ft 442 kts 157°
2026-05-06 18:11 51.40870 -0.94275 37005 ft 442 kts 157°
2026-05-06 18:12 51.35286 -0.90127 37005 ft 442 kts 157°
2026-05-06 18:12 51.29739 -0.86016 37003 ft 442 kts 157°
2026-05-06 18:13 51.24121 -0.81869 37002 ft 442 kts 157°
2026-05-06 18:13 51.18535 -0.77771 37002 ft 442 kts 157°
2026-05-06 18:14 51.12980 -0.73699 37000 ft 442 kts 157°
2026-05-06 18:14 51.07396 -0.69606 36996 ft 442 kts 157°
2026-05-06 18:15 51.01812 -0.65522 37000 ft 442 kts 157°
2026-05-06 18:15 50.97316 -0.62247 36985 ft 442 kts 157°
2026-05-06 18:16 50.91736 -0.58194 36980 ft 442 kts 157°
2026-05-06 18:16 50.86144 -0.54142 36978 ft 441 kts 157°
2026-05-06 18:17 50.80558 -0.50104 36978 ft 441 kts 157°
2026-05-06 18:17 50.74973 -0.46081 36980 ft 441 kts 157°
2026-05-06 18:18 50.69389 -0.42063 36980 ft 441 kts 157°
2026-05-06 18:18 50.63803 -0.38051 36979 ft 441 kts 157°
2026-05-06 18:19 50.58220 -0.34053 36981 ft 441 kts 157°
2026-05-06 18:19 50.52632 -0.30066 36983 ft 441 kts 157°
2026-05-06 18:20 50.47045 -0.26098 36981 ft 441 kts 157°
2026-05-06 18:20 50.41453 -0.22137 36986 ft 441 kts 157°
2026-05-06 18:21 50.35866 -0.18180 36984 ft 441 kts 157°
2026-05-06 18:21 50.30275 -0.14228 36985 ft 441 kts 157°
2026-05-06 18:22 50.25627 -0.10945 36984 ft 441 kts 157°
2026-05-06 18:22 50.20034 -0.07013 36987 ft 441 kts 157°
2026-05-06 18:23 50.14432 -0.03099 36986 ft 441 kts 157°
2026-05-06 18:23 50.08756 0.00489 36983 ft 439 kts 166°
2026-05-06 18:24 50.02829 0.02829 36982 ft 439 kts 167°
2026-05-06 18:24 49.96902 0.05161 36977 ft 440 kts 167°
2026-05-06 18:25 49.90966 0.07489 36978 ft 440 kts 167°
2026-05-06 18:25 49.85031 0.09811 36978 ft 440 kts 167°
2026-05-06 18:26 49.79134 0.12125 36981 ft 440 kts 167°
2026-05-06 18:26 49.73192 0.14446 36989 ft 441 kts 167°
2026-05-06 18:27 49.67241 0.16760 36996 ft 441 kts 167°
2026-05-06 18:27 49.61303 0.19141 36996 ft 441 kts 166°
2026-05-06 18:28 49.55369 0.21551 36997 ft 441 kts 166°
2026-05-06 18:28 49.49425 0.23939 36997 ft 441 kts 166°
2026-05-06 18:29 49.43481 0.26325 36999 ft 441 kts 166°
2026-05-06 18:29 49.37540 0.28694 37000 ft 441 kts 166°
2026-05-06 18:30 49.31591 0.31063 36998 ft 442 kts 166°
2026-05-06 18:30 49.25654 0.33496 36991 ft 442 kts 166°
2026-05-06 18:31 49.19728 0.36026 36987 ft 442 kts 165°
2026-05-06 18:31 49.13800 0.38552 36982 ft 442 kts 165°
2026-05-06 18:32 49.07868 0.41048 36977 ft 442 kts 166°
2026-05-06 18:32 49.01934 0.43515 36975 ft 442 kts 166°
2026-05-06 18:33 48.96000 0.45990 36977 ft 442 kts 166°
2026-05-06 18:33 48.90103 0.48436 36975 ft 442 kts 166°
2026-05-06 18:34 48.84170 0.50897 36973 ft 442 kts 166°
2026-05-06 18:34 48.78235 0.53360 36977 ft 442 kts 166°
2026-05-06 18:35 48.72284 0.55733 36977 ft 442 kts 167°
2026-05-06 18:35 48.66322 0.58033 36977 ft 442 kts 167°
2026-05-06 18:36 48.60365 0.60343 36978 ft 442 kts 166°
2026-05-06 18:36 48.54412 0.62668 36975 ft 442 kts 166°
2026-05-06 18:37 48.48459 0.65014 36979 ft 442 kts 166°
2026-05-06 18:37 48.42524 0.67451 36978 ft 442 kts 165°
2026-05-06 18:38 48.36592 0.69890 36978 ft 442 kts 166°
2026-05-06 18:38 48.30662 0.72299 36975 ft 442 kts 166°
2026-05-06 18:39 48.24721 0.74688 36973 ft 442 kts 166°
2026-05-06 18:40 48.15807 0.78206 36970 ft 442 kts 166°
2026-05-06 18:40 48.09856 0.80522 36966 ft 442 kts 166°
2026-05-06 18:41 48.03907 0.82848 36963 ft 442 kts 166°
2026-05-06 18:41 47.97956 0.85179 36961 ft 442 kts 166°
2026-05-06 18:42 47.92046 0.87497 36959 ft 442 kts 166°
2026-05-06 18:42 47.86093 0.89807 36959 ft 442 kts 166°
2026-05-06 18:43 47.80096 0.92119 36955 ft 442 kts 166°
2026-05-06 18:43 47.74138 0.94423 36954 ft 442 kts 166°
2026-05-06 18:44 47.68182 0.96738 36954 ft 443 kts 166°
2026-05-06 18:44 47.62227 0.99044 36958 ft 443 kts 166°
2026-05-06 18:45 47.56299 1.01324 36959 ft 443 kts 167°
2026-05-06 18:45 47.50338 1.03598 36966 ft 443 kts 167°
2026-05-06 18:46 47.44368 1.05829 36958 ft 442 kts 171°
2026-05-06 18:46 47.38268 1.06338 36964 ft 439 kts 182°
2026-05-06 18:47 47.32157 1.06189 36959 ft 439 kts 182°
2026-05-06 18:47 47.26041 1.06052 36960 ft 440 kts 182°
2026-05-06 18:48 47.19927 1.05914 36955 ft 440 kts 182°
2026-05-06 18:48 47.13806 1.05770 36957 ft 439 kts 182°
2026-05-06 18:49 47.07693 1.05623 36954 ft 439 kts 182°
2026-05-06 18:49 47.01578 1.05472 36957 ft 439 kts 182°
2026-05-06 18:50 46.95467 1.05237 36956 ft 439 kts 183°
2026-05-06 18:50 46.89362 1.04946 36960 ft 439 kts 183°
2026-05-06 18:51 46.83293 1.04676 36961 ft 439 kts 183°
2026-05-06 18:51 46.77178 1.04415 36961 ft 440 kts 183°
2026-05-06 18:52 46.71070 1.04160 36959 ft 439 kts 183°
2026-05-06 18:52 46.64962 1.03900 36959 ft 439 kts 183°
2026-05-06 18:53 46.58857 1.03643 36957 ft 439 kts 183°
2026-05-06 18:53 46.52747 1.03445 36957 ft 440 kts 179°
2026-05-06 18:54 46.46711 1.04964 36958 ft 442 kts 168°
2026-05-06 18:54 46.40724 1.06990 36960 ft 442 kts 168°
2026-05-06 18:55 46.34737 1.08997 36955 ft 442 kts 168°
2026-05-06 18:55 46.28742 1.10978 36953 ft 442 kts 169°
2026-05-06 18:56 46.22748 1.12960 36951 ft 442 kts 168°
2026-05-06 18:56 46.16756 1.14949 36951 ft 442 kts 169°
2026-05-06 18:57 46.10732 1.16682 36945 ft 441 kts 172°
2026-05-06 18:57 46.04680 1.18133 36947 ft 441 kts 172°
2026-05-06 18:58 45.98626 1.19568 36946 ft 441 kts 172°
2026-05-06 18:58 45.92581 1.21085 36944 ft 441 kts 172°
2026-05-06 18:59 45.86544 1.22643 36944 ft 441 kts 172°
2026-05-06 18:59 45.80507 1.24170 36947 ft 441 kts 172°
2026-05-06 19:00 45.74464 1.25675 36947 ft 441 kts 172°
2026-05-06 19:00 45.68428 1.27187 36946 ft 440 kts 172°
2026-05-06 19:01 45.62392 1.28701 36945 ft 440 kts 172°
2026-05-06 19:01 45.56364 1.30215 36931 ft 440 kts 172°
2026-05-06 19:02 45.50332 1.31724 36932 ft 440 kts 172°
2026-05-06 19:02 45.44303 1.33223 36937 ft 440 kts 172°
2026-05-06 19:03 45.38317 1.34700 36936 ft 440 kts 172°
2026-05-06 19:03 45.32288 1.36192 36946 ft 440 kts 172°
2026-05-06 19:04 45.26263 1.37689 36947 ft 439 kts 172°
2026-05-06 19:04 45.20237 1.39184 36943 ft 439 kts 172°
2026-05-06 19:05 45.14213 1.40660 36952 ft 439 kts 172°
2026-05-06 19:05 45.08193 1.42136 36950 ft 439 kts 172°
2026-05-06 19:06 45.02171 1.43613 36954 ft 439 kts 172°
2026-05-06 19:06 44.96151 1.45092 36948 ft 439 kts 173°
2026-05-06 19:07 44.90135 1.46563 36941 ft 439 kts 173°
2026-05-06 19:07 44.84121 1.48018 36944 ft 438 kts 173°
2026-05-06 19:08 44.78109 1.49478 36947 ft 438 kts 173°
2026-05-06 19:08 44.72102 1.50937 36956 ft 438 kts 173°
2026-05-06 19:09 44.66089 1.52383 36949 ft 438 kts 173°
2026-05-06 19:09 44.60123 1.53830 36952 ft 438 kts 173°
2026-05-06 19:10 44.54116 1.55290 36960 ft 438 kts 173°
2026-05-06 19:10 44.48108 1.56739 36965 ft 438 kts 173°
2026-05-06 19:11 44.42107 1.58174 36966 ft 438 kts 173°
2026-05-06 19:11 44.37078 1.59370 36967 ft 437 kts 173°
2026-05-06 19:12 44.31084 1.60800 36971 ft 437 kts 173°
2026-05-06 19:12 44.25090 1.62229 36974 ft 437 kts 173°
2026-05-06 19:13 44.19102 1.63662 36975 ft 436 kts 173°
2026-05-06 19:13 44.13117 1.65097 36983 ft 436 kts 174°
2026-05-06 19:14 44.07180 1.66508 36986 ft 436 kts 174°
2026-05-06 19:14 44.01165 1.67921 36987 ft 435 kts 174°
2026-05-06 19:15 43.95237 1.69312 36981 ft 435 kts 174°
2026-05-06 19:15 43.89274 1.70722 36988 ft 434 kts 174°
2026-05-06 19:16 43.83319 1.72129 36991 ft 434 kts 174°
2026-05-06 19:16 43.77370 1.73517 36996 ft 434 kts 174°
2026-05-06 19:17 43.71424 1.74909 36995 ft 433 kts 174°
2026-05-06 19:17 43.65482 1.76300 36997 ft 433 kts 175°
2026-05-06 19:18 43.59539 1.77690 37006 ft 433 kts 175°
2026-05-06 19:18 43.53607 1.79070 37006 ft 432 kts 175°
2026-05-06 19:19 43.47674 1.80446 37000 ft 432 kts 175°
2026-05-06 19:19 43.41748 1.81826 37002 ft 432 kts 175°
2026-05-06 19:20 43.35826 1.83201 37000 ft 431 kts 175°
2026-05-06 19:20 43.29905 1.84564 37002 ft 431 kts 175°
2026-05-06 19:21 43.23984 1.85932 36999 ft 431 kts 175°
2026-05-06 19:21 43.18075 1.87296 37002 ft 431 kts 175°
2026-05-06 19:22 43.12157 1.88652 37003 ft 431 kts 175°
2026-05-06 19:22 43.06249 1.90004 37005 ft 431 kts 176°
2026-05-06 19:23 43.00376 1.91339 37005 ft 430 kts 176°
2026-05-06 19:23 42.94468 1.92691 37002 ft 430 kts 176°
2026-05-06 19:24 42.88559 1.94039 37005 ft 431 kts 176°
2026-05-06 19:24 42.82650 1.95384 37005 ft 430 kts 176°
2026-05-06 19:25 42.76745 1.96724 37002 ft 430 kts 176°
2026-05-06 19:25 42.70840 1.98056 37003 ft 430 kts 176°
2026-05-06 19:26 42.64936 1.99393 37008 ft 430 kts 176°
2026-05-06 19:26 42.59039 2.00725 37007 ft 429 kts 176°
2026-05-06 19:27 42.53150 2.02054 37001 ft 429 kts 176°
2026-05-06 19:27 42.47304 2.03365 36998 ft 428 kts 176°
2026-05-06 19:28 42.41425 2.04682 36994 ft 428 kts 176°
2026-05-06 19:28 42.35556 2.06080 36992 ft 431 kts 171°
2026-05-06 19:29 42.29751 2.08152 36987 ft 431 kts 171°
2026-05-06 19:29 42.23958 2.10208 36983 ft 430 kts 171°
2026-05-06 19:30 42.18167 2.12254 36979 ft 430 kts 171°
2026-05-06 19:30 42.12384 2.14298 36978 ft 430 kts 171°
2026-05-06 19:31 42.06606 2.16338 36975 ft 429 kts 171°
2026-05-06 19:31 41.97946 2.19386 36974 ft 428 kts 172°
2026-05-06 19:32 41.92177 2.21417 36975 ft 428 kts 172°
2026-05-06 19:32 41.86411 2.23436 36971 ft 428 kts 172°
2026-05-06 19:33 41.80647 2.25446 36978 ft 428 kts 172°
2026-05-06 19:33 41.74889 2.27457 36981 ft 428 kts 172°
2026-05-06 19:34 41.69134 2.29474 36973 ft 427 kts 172°
2026-05-06 19:34 41.63381 2.31482 36965 ft 427 kts 172°
2026-05-06 19:35 41.57632 2.33480 36972 ft 427 kts 172°
2026-05-06 19:35 41.51893 2.35470 36963 ft 426 kts 172°
2026-05-06 19:36 41.46192 2.37452 36967 ft 426 kts 172°
2026-05-06 19:36 41.40455 2.39439 36960 ft 426 kts 172°
2026-05-06 19:37 41.34719 2.41420 36956 ft 426 kts 172°
2026-05-06 19:37 41.29914 2.43074 36952 ft 426 kts 173°
2026-05-06 19:38 41.23246 2.45362 36954 ft 426 kts 173°
2026-05-06 19:38 41.17514 2.47330 36952 ft 425 kts 173°
2026-05-06 19:39 41.11782 2.49297 36640 ft 425 kts 173°
2026-05-06 19:39 41.08920 2.50279 36376 ft 424 kts 173°
2026-05-06 19:39 41.06061 2.51257 36122 ft 424 kts 173°
2026-05-06 19:40 41.03206 2.52235 35868 ft 424 kts 173°
2026-05-06 19:40 41.00349 2.53211 35618 ft 424 kts 174°
2026-05-06 19:40 40.97501 2.54181 35357 ft 422 kts 174°
2026-05-06 19:40 40.94662 2.55152 35128 ft 420 kts 174°
2026-05-06 19:41 40.91851 2.56115 34768 ft 415 kts 174°
2026-05-06 19:41 40.89062 2.57068 34269 ft 412 kts 175°
2026-05-06 19:41 40.86292 2.58014 33759 ft 410 kts 175°
2026-05-06 19:41 40.83583 2.58934 33273 ft 406 kts 175°
2026-05-06 19:42 40.80865 2.59855 32802 ft 401 kts 175°
2026-05-06 19:42 40.78137 2.60779 32325 ft 397 kts 175°
2026-05-06 19:42 40.75509 2.61668 31875 ft 393 kts 175°
2026-05-06 19:42 40.72872 2.62563 31422 ft 389 kts 175°
2026-05-06 19:43 40.70261 2.63447 30974 ft 386 kts 175°
2026-05-06 19:43 40.67674 2.64322 30543 ft 382 kts 174°
2026-05-06 19:43 40.65110 2.65184 30122 ft 379 kts 174°
2026-05-06 19:43 40.62562 2.66040 29658 ft 376 kts 174°
2026-05-06 19:44 40.60044 2.66885 29247 ft 372 kts 174°
2026-05-06 19:44 40.57548 2.67723 28844 ft 368 kts 174°
2026-05-06 19:44 40.55081 2.68552 28462 ft 364 kts 174°
2026-05-06 19:44 40.52641 2.69376 28074 ft 360 kts 174°
2026-05-06 19:45 40.50212 2.70310 27617 ft 370 kts 167°
2026-05-06 19:45 40.47855 2.71793 27034 ft 381 kts 159°
2026-05-06 19:45 40.45517 2.73487 26413 ft 386 kts 159°
2026-05-06 19:45 40.43152 2.75202 25811 ft 390 kts 158°
2026-05-06 19:46 40.40765 2.76938 25313 ft 394 kts 158°
2026-05-06 19:46 40.38341 2.78699 25065 ft 401 kts 158°
2026-05-06 19:46 40.35900 2.80472 24822 ft 402 kts 157°
2026-05-06 19:46 40.33455 2.82246 24429 ft 401 kts 157°
2026-05-06 19:47 40.31019 2.84008 23925 ft 400 kts 157°
2026-05-06 19:47 40.28585 2.85763 23384 ft 399 kts 156°
2026-05-06 19:47 40.26154 2.87512 22848 ft 397 kts 156°
2026-05-06 19:47 40.23745 2.89249 22354 ft 394 kts 156°
2026-05-06 19:48 40.21352 2.90980 21864 ft 391 kts 156°
2026-05-06 19:48 40.18979 2.92695 21396 ft 388 kts 156°
2026-05-06 19:48 40.16623 2.94395 20927 ft 385 kts 156°
2026-05-06 19:48 40.14284 2.96079 20462 ft 382 kts 156°
2026-05-06 19:49 40.11963 2.97748 20006 ft 379 kts 156°
2026-05-06 19:49 40.09661 2.99403 19563 ft 376 kts 156°
2026-05-06 19:49 40.07342 3.00932 19101 ft 369 kts 164°
2026-05-06 19:49 40.04890 3.01706 18672 ft 358 kts 179°
2026-05-06 19:50 40.02438 3.01635 18246 ft 348 kts 193°
2026-05-06 19:50 40.00133 3.00816 17792 ft 342 kts 203°
2026-05-06 19:50 39.97889 2.99805 17396 ft 340 kts 203°
2026-05-06 19:50 39.95653 2.98810 16996 ft 339 kts 202°
2026-05-06 19:51 39.93863 2.98018 16678 ft 338 kts 202°
2026-05-06 19:51 39.91645 2.97039 16287 ft 336 kts 202°
2026-05-06 19:51 39.89440 2.96066 15904 ft 334 kts 202°
2026-05-06 19:51 39.87243 2.95095 15518 ft 333 kts 202°
2026-05-06 19:52 39.85109 2.94082 15137 ft 329 kts 208°
2026-05-06 19:52 39.83208 2.92490 14750 ft 323 kts 223°
2026-05-06 19:52 39.81730 2.90323 14360 ft 320 kts 237°
2026-05-06 19:52 39.80482 2.87930 13974 ft 319 kts 237°
2026-05-06 19:53 39.79238 2.85554 13711 ft 319 kts 237°
2026-05-06 19:53 39.77987 2.83170 13442 ft 318 kts 237°
2026-05-06 19:53 39.76740 2.80797 13175 ft 318 kts 237°
2026-05-06 19:53 39.75489 2.78427 12914 ft 318 kts 236°
2026-05-06 19:54 39.74243 2.76072 12651 ft 314 kts 236°
2026-05-06 19:54 39.73015 2.73751 12388 ft 310 kts 236°
2026-05-06 19:54 39.71805 2.71467 12126 ft 303 kts 236°
2026-05-06 19:54 39.70627 2.69242 11959 ft 295 kts 236°
2026-05-06 19:55 39.69486 2.67082 11827 ft 284 kts 236°
2026-05-06 19:55 39.68392 2.65007 11662 ft 273 kts 236°
2026-05-06 19:55 39.67330 2.62993 11353 ft 269 kts 236°
2026-05-06 19:55 39.66276 2.60991 11013 ft 267 kts 237°
2026-05-06 19:56 39.65231 2.59001 10585 ft 266 kts 236°
2026-05-06 19:56 39.64189 2.57020 10125 ft 266 kts 236°
2026-05-06 19:56 39.63143 2.55040 9664 ft 266 kts 236°
2026-05-06 19:56 39.62095 2.53067 9176 ft 267 kts 236°
2026-05-06 19:57 39.61026 2.51053 8418 ft 274 kts 236°
2026-05-06 19:57 39.59936 2.48999 7753 ft 277 kts 236°
2026-05-06 19:57 39.58853 2.46960 7292 ft 271 kts 236°
2026-05-06 19:57 39.57796 2.44970 6871 ft 264 kts 236°
2026-05-06 19:58 39.56610 2.43234 6473 ft 254 kts 213°
2026-05-06 19:58 39.54984 2.42540 6079 ft 246 kts 180°
2026-05-06 19:58 39.53367 2.43056 5672 ft 239 kts 153°
2026-05-06 19:58 39.51862 2.43957 5285 ft 239 kts 156°
2026-05-06 19:59 39.50315 2.44780 4882 ft 241 kts 157°
2026-05-06 19:59 39.48756 2.45591 4477 ft 242 kts 157°
2026-05-06 19:59 39.47184 2.46304 4254 ft 235 kts 168°
2026-05-06 19:59 39.45589 2.46505 4131 ft 225 kts 168°
2026-05-06 20:00 39.44667 2.47012 4042 ft 216 kts 140°
2026-05-06 20:00 39.43947 2.48597 3911 ft 204 kts 96°
2026-05-06 20:00 39.44319 2.50278 3776 ft 196 kts 50°
2026-05-06 20:00 39.45642 2.51858 3405 ft 196 kts 56°
2026-05-06 20:01 39.46313 2.53367 3199 ft 192 kts 60°
2026-05-06 20:01 39.47007 2.54844 2898 ft 191 kts 59°
2026-05-06 20:01 39.47476 2.55828 2725 ft 189 kts 59°
2026-05-06 20:01 39.48156 2.57255 2471 ft 182 kts 59°
2026-05-06 20:02 39.48793 2.58593 2239 ft 168 kts 59°
2026-05-06 20:02 39.49384 2.59837 2020 ft 157 kts 60°
2026-05-06 20:02 39.49940 2.61007 1828 ft 148 kts 60°
2026-05-06 20:02 39.50470 2.62121 1637 ft 144 kts 60°
2026-05-06 20:03 39.50980 2.63196 1448 ft 136 kts 59°
2026-05-06 20:03 39.51466 2.64221 1269 ft 132 kts 59°
2026-05-06 20:03 39.51944 2.65228 1093 ft 131 kts 59°
2026-05-06 20:03 39.52420 2.66231 926 ft 130 kts 58°
2026-05-06 20:04 39.52893 2.67230 749 ft 130 kts 58°
2026-05-06 20:04 39.53361 2.68216 577 ft 130 kts 58°
2026-05-06 20:04 39.53838 2.69222 401 ft 129 kts 58°
2026-05-06 20:04 39.54302 2.70194 215 ft 128 kts 58°
2026-05-06 20:05 39.54770 2.71190 54 ft 127 kts 58°
2026-05-06 20:05 39.55171 2.72031 38 ft 90 kts 58°
2026-05-06 20:05 39.55403 2.72521 38 ft 45 kts 59°
2026-05-06 20:05 39.55492 2.72807 38 ft 26 kts 83°
2026-05-06 20:06 39.55499 2.72958 38 ft 16 kts 87°
2026-05-06 20:06 39.55502 2.73088 38 ft 15 kts 88°
2026-05-06 20:06 39.55474 2.73116 38 ft 5 kts 223°
2026-05-06 20:06 39.55447 2.73063 38 ft 9 kts 237°
2026-05-06 20:07 39.55411 2.72990 38 ft 10 kts 232°
2026-05-06 20:07 39.55342 2.72993 38 ft 12 kts 146°
2026-05-06 20:07 39.55266 2.73044 38 ft 12 kts 184°
2026-05-06 20:07 39.55210 2.72956 38 ft 14 kts 239°
2026-05-06 20:08 39.55155 2.72840 38 ft 16 kts 239°
2026-05-06 20:08 39.55114 2.72752 37 ft 5 kts 239°
2026-05-06 20:08 39.55093 2.72706 38 ft 7 kts 238°
2026-05-06 20:08 39.55054 2.72702 38 ft 7 kts 141°
2026-05-06 20:09 39.55024 2.72739 38 ft 2 kts 135°
2026-05-06 20:09 39.55019 2.72746 38 ft 0 kts 135°